SWR571 LGAV-LSZH

Flight info

Callsign SWR571
Flight time N/A
Altitude 40000
Route KOR UL53 ELVAS DCT TUMBO DCT RODON DCT VAKSU DCT SPL DCT MONFA DCT BAKOR DCT SOTOV P66 KPT L856 NEGRA
Aircraft A359/H-SDE2E3GHIJ3J4J5LM1ORWXY/LB1D1

Departure

Time 2026-05-05 18:06
Airport Athens Eleftherios Venizelos International Airport (LGAV)

Arrival

Time N/A
Airport Zürich Airport (LSZH)
Time Latitude Longitude Altitude Speed Heading
2026-05-05 17:29 37.93369 23.94619 307 ft 0 kts 307°
2026-05-05 17:57 37.93361 23.94633 307 ft 4 kts 303°
2026-05-05 17:57 37.93348 23.94662 307 ft 4 kts 291°
2026-05-05 17:57 37.93341 23.94694 305 ft 4 kts 266°
2026-05-05 17:58 37.93348 23.94719 305 ft 1 kts 217°
2026-05-05 17:58 37.93348 23.94720 305 ft 0 kts 217°
2026-05-05 18:01 37.93345 23.94716 305 ft 2 kts 218°
2026-05-05 18:01 37.93303 23.94675 310 ft 13 kts 217°
2026-05-05 18:01 37.93227 23.94609 310 ft 11 kts 207°
2026-05-05 18:02 37.93157 23.94593 309 ft 10 kts 185°
2026-05-05 18:02 37.93095 23.94613 307 ft 9 kts 136°
2026-05-05 18:02 37.93055 23.94674 311 ft 5 kts 139°
2026-05-05 18:02 37.93014 23.94669 310 ft 14 kts 200°
2026-05-05 18:03 37.92918 23.94587 311 ft 17 kts 217°
2026-05-05 18:03 37.92833 23.94507 312 ft 14 kts 217°
2026-05-05 18:03 37.92765 23.94442 309 ft 11 kts 217°
2026-05-05 18:03 37.92709 23.94389 313 ft 9 kts 217°
2026-05-05 18:04 37.92647 23.94330 313 ft 14 kts 217°
2026-05-05 18:04 37.92560 23.94247 313 ft 15 kts 217°
2026-05-05 18:04 37.92502 23.94193 313 ft 7 kts 217°
2026-05-05 18:04 37.92453 23.94163 312 ft 10 kts 182°
2026-05-05 18:05 37.92415 23.94218 312 ft 7 kts 99°
2026-05-05 18:05 37.92413 23.94280 313 ft 8 kts 90°
2026-05-05 18:05 37.92414 23.94359 315 ft 8 kts 84°
2026-05-05 18:05 37.92442 23.94410 315 ft 7 kts 38°
2026-05-05 18:06 37.92580 23.94545 313 ft 60 kts 37°
2026-05-05 18:06 37.92899 23.94846 307 ft 108 kts 36°
2026-05-05 18:06 37.93980 23.95863 459 ft 169 kts 37°
2026-05-05 18:06 37.94889 23.96780 1288 ft 167 kts 39°
2026-05-05 18:07 37.95809 23.97799 1746 ft 190 kts 42°
2026-05-05 18:07 37.96860 23.99000 2094 ft 218 kts 38°
2026-05-05 18:07 37.98118 24.00268 2514 ft 241 kts 34°
2026-05-05 18:07 37.99529 24.01512 3251 ft 250 kts 31°
2026-05-05 18:08 38.00971 24.02760 4143 ft 253 kts 33°
2026-05-05 18:08 38.02424 24.04045 4939 ft 258 kts 33°
2026-05-05 18:08 38.03905 24.05376 5727 ft 264 kts 34°
2026-05-05 18:08 38.05437 24.06684 6578 ft 266 kts 25°
2026-05-05 18:09 38.07199 24.07281 7478 ft 264 kts
2026-05-05 18:09 38.08992 24.06866 8340 ft 265 kts 333°
2026-05-05 18:09 38.10434 24.05429 9137 ft 268 kts 305°
2026-05-05 18:09 38.11138 24.03240 9928 ft 273 kts 278°
2026-05-05 18:10 38.11423 24.00812 10665 ft 283 kts 278°
2026-05-05 18:10 38.11689 23.98264 11256 ft 300 kts 276°
2026-05-05 18:10 38.11875 23.95553 11759 ft 318 kts 272°
2026-05-05 18:10 38.11851 23.92648 12170 ft 338 kts 266°
2026-05-05 18:11 38.11662 23.89617 12753 ft 350 kts 264°
2026-05-05 18:11 38.11427 23.86515 13503 ft 356 kts 264°
2026-05-05 18:11 38.11208 23.83409 14279 ft 361 kts 265°
2026-05-05 18:11 38.11017 23.80216 15034 ft 366 kts 266°
2026-05-05 18:12 38.10856 23.76995 15783 ft 370 kts 266°
2026-05-05 18:12 38.10713 23.73697 16509 ft 374 kts 267°
2026-05-05 18:12 38.10581 23.70380 17227 ft 378 kts 267°
2026-05-05 18:12 38.10451 23.67024 17920 ft 383 kts 267°
2026-05-05 18:13 38.10319 23.63629 18616 ft 387 kts 267°
2026-05-05 18:13 38.10183 23.60197 19335 ft 391 kts 267°
2026-05-05 18:13 38.10043 23.56726 20069 ft 395 kts 267°
2026-05-05 18:13 38.09900 23.53223 20782 ft 399 kts 267°
2026-05-05 18:14 38.09753 23.49688 21452 ft 403 kts 267°
2026-05-05 18:14 38.09603 23.46112 22095 ft 408 kts 267°
2026-05-05 18:14 38.09451 23.42500 22723 ft 412 kts 267°
2026-05-05 18:14 38.09296 23.38852 23325 ft 417 kts 267°
2026-05-05 18:15 38.09137 23.35159 23881 ft 422 kts 267°
2026-05-05 18:15 38.09041 23.32932 24216 ft 425 kts 267°
2026-05-05 18:15 38.08877 23.29169 24816 ft 428 kts 267°
2026-05-05 18:15 38.08711 23.25375 25417 ft 432 kts 267°
2026-05-05 18:16 38.08543 23.21559 26000 ft 435 kts 267°
2026-05-05 18:16 38.08373 23.17713 26572 ft 438 kts 267°
2026-05-05 18:16 38.08200 23.13840 27149 ft 441 kts 266°
2026-05-05 18:16 38.08025 23.09932 27684 ft 444 kts 266°
2026-05-05 18:17 38.07847 23.06009 28186 ft 448 kts 266°
2026-05-05 18:17 38.07666 23.02054 28676 ft 451 kts 266°
2026-05-05 18:17 38.07482 22.98056 29153 ft 454 kts 266°
2026-05-05 18:17 38.07299 22.94089 29597 ft 458 kts 266°
2026-05-05 18:18 38.07109 22.90033 30042 ft 461 kts 266°
2026-05-05 18:18 38.06919 22.85974 30473 ft 464 kts 266°
2026-05-05 18:18 38.06724 22.81865 30882 ft 467 kts 266°
2026-05-05 18:18 38.06585 22.77735 31260 ft 470 kts 270°
2026-05-05 18:19 38.06813 22.73594 31617 ft 473 kts 278°
2026-05-05 18:19 38.07518 22.69507 31963 ft 476 kts 287°
2026-05-05 18:19 38.08722 22.65586 32292 ft 479 kts 295°
2026-05-05 18:19 38.10299 22.61906 32605 ft 482 kts 301°
2026-05-05 18:20 38.12110 22.58364 32923 ft 485 kts 304°
2026-05-05 18:20 38.14056 22.54860 33297 ft 485 kts 305°
2026-05-05 18:20 38.16029 22.51399 33741 ft 484 kts 305°
2026-05-05 18:20 38.17998 22.47936 34172 ft 483 kts 305°
2026-05-05 18:21 38.19946 22.44466 34566 ft 482 kts 304°
2026-05-05 18:21 38.21877 22.40978 34957 ft 481 kts 304°
2026-05-05 18:21 38.23789 22.37486 35323 ft 480 kts 304°
2026-05-05 18:21 38.25684 22.34002 35678 ft 479 kts 304°
2026-05-05 18:22 38.27577 22.30510 36019 ft 479 kts 304°
2026-05-05 18:22 38.29469 22.27010 36346 ft 478 kts 304°
2026-05-05 18:22 38.31353 22.23523 36641 ft 478 kts 304°
2026-05-05 18:22 38.33334 22.20114 36896 ft 479 kts 309°
2026-05-05 18:23 38.35634 22.17037 37156 ft 480 kts 317°
2026-05-05 18:23 38.38194 22.14282 37394 ft 482 kts 320°
2026-05-05 18:23 38.40857 22.11661 37587 ft 484 kts 322°
2026-05-05 18:23 38.43575 22.09112 37796 ft 486 kts 323°
2026-05-05 18:24 38.46323 22.06581 37961 ft 488 kts 323°
2026-05-05 18:24 38.49033 22.04092 38175 ft 489 kts 323°
2026-05-05 18:24 38.51838 22.01501 38510 ft 487 kts 323°
2026-05-05 18:24 38.54565 21.98965 38812 ft 485 kts 323°
2026-05-05 18:25 38.57292 21.96414 39047 ft 485 kts 323°
2026-05-05 18:25 38.59093 21.94723 39153 ft 487 kts 322°
2026-05-05 18:25 38.62713 21.91315 39355 ft 488 kts 322°
2026-05-05 18:25 38.65447 21.88735 39525 ft 489 kts 322°
2026-05-05 18:26 38.68184 21.86149 39746 ft 488 kts 322°
2026-05-05 18:26 38.70916 21.83567 39951 ft 488 kts 322°
2026-05-05 18:26 38.73647 21.80984 40003 ft 489 kts 322°
2026-05-05 18:27 38.79127 21.75794 40002 ft 489 kts 322°
2026-05-05 18:27 38.84614 21.70588 40000 ft 491 kts 322°
2026-05-05 18:28 38.92823 21.62781 39999 ft 487 kts 322°
2026-05-05 18:28 38.98271 21.57587 40002 ft 487 kts 322°
2026-05-05 18:29 39.03554 21.52540 40001 ft 485 kts 322°
2026-05-05 18:29 39.09112 21.47219 39999 ft 486 kts 322°
2026-05-05 18:30 39.14536 21.42017 39997 ft 486 kts 322°
2026-05-05 18:30 39.19956 21.36809 40000 ft 486 kts 322°
2026-05-05 18:31 39.25346 21.31618 39999 ft 485 kts 322°
2026-05-05 18:31 39.30766 21.26390 40002 ft 486 kts 322°
2026-05-05 18:32 39.36142 21.21192 40001 ft 487 kts 322°
2026-05-05 18:32 39.41605 21.15900 40000 ft 495 kts 322°
2026-05-05 18:33 39.47152 21.10516 40004 ft 501 kts 322°
2026-05-05 18:33 39.52739 21.05082 40001 ft 502 kts 322°
2026-05-05 18:34 39.58328 20.99637 40001 ft 502 kts 322°
2026-05-05 18:34 39.63907 20.94188 40000 ft 501 kts 322°
2026-05-05 18:35 39.68525 20.89671 40000 ft 500 kts 322°
2026-05-05 18:35 39.74989 20.83333 40001 ft 503 kts 322°
2026-05-05 18:36 39.79671 20.78732 40002 ft 505 kts 322°
2026-05-05 18:36 39.85277 20.73215 40001 ft 504 kts 322°
2026-05-05 18:37 39.90824 20.67743 40000 ft 503 kts 322°
2026-05-05 18:37 39.96406 20.62225 40000 ft 502 kts 322°
2026-05-05 18:38 40.01959 20.56724 40000 ft 501 kts 322°
2026-05-05 18:38 40.07517 20.51206 39998 ft 503 kts 322°
2026-05-05 18:39 40.13099 20.45653 40000 ft 504 kts 322°
2026-05-05 18:39 40.18677 20.40093 39996 ft 503 kts 322°
2026-05-05 18:40 40.24221 20.34555 40001 ft 499 kts 322°
2026-05-05 18:40 40.29695 20.29075 40000 ft 498 kts 321°
2026-05-05 18:41 40.35202 20.23550 40001 ft 500 kts 321°
2026-05-05 18:41 40.40731 20.17990 40000 ft 500 kts 321°
2026-05-05 18:42 40.46258 20.12423 40001 ft 500 kts 321°
2026-05-05 18:42 40.51773 20.06856 39996 ft 500 kts 321°
2026-05-05 18:43 40.57296 20.01268 40002 ft 500 kts 321°
2026-05-05 18:43 40.62808 19.95679 40001 ft 500 kts 321°
2026-05-05 18:44 40.68293 19.90107 39999 ft 498 kts 321°
2026-05-05 18:44 40.73777 19.84522 40003 ft 498 kts 321°
2026-05-05 18:45 40.79217 19.78969 39998 ft 497 kts 321°
2026-05-05 18:45 40.84682 19.73381 39998 ft 496 kts 321°
2026-05-05 18:46 40.90138 19.67791 40000 ft 496 kts 321°
2026-05-05 18:46 40.95585 19.62197 39999 ft 496 kts 321°
2026-05-05 18:47 41.01030 19.56593 40001 ft 496 kts 321°
2026-05-05 18:47 41.06475 19.50976 40001 ft 496 kts 321°
2026-05-05 18:48 41.11913 19.45356 40001 ft 496 kts 321°
2026-05-05 18:48 41.17352 19.39722 40001 ft 496 kts 321°
2026-05-05 18:49 41.22785 19.34081 40001 ft 496 kts 321°
2026-05-05 18:49 41.28221 19.28426 40000 ft 496 kts 321°
2026-05-05 18:50 41.33594 19.22824 40000 ft 496 kts 321°
2026-05-05 18:50 41.38217 19.17994 40000 ft 496 kts 321°
2026-05-05 18:51 41.43474 19.12492 40001 ft 496 kts 321°
2026-05-05 18:51 41.48908 19.06820 39997 ft 496 kts 321°
2026-05-05 18:52 41.54391 19.01230 40000 ft 496 kts 322°
2026-05-05 18:52 41.59882 18.95641 39997 ft 496 kts 322°
2026-05-05 18:53 41.65357 18.90036 39997 ft 496 kts 321°
2026-05-05 18:53 41.70830 18.84408 40000 ft 496 kts 321°
2026-05-05 18:54 41.76294 18.78773 40001 ft 496 kts 321°
2026-05-05 18:54 41.81756 18.73129 39999 ft 496 kts 321°
2026-05-05 18:55 41.87187 18.67505 40000 ft 496 kts 321°
2026-05-05 18:55 41.92640 18.61846 40001 ft 496 kts 321°
2026-05-05 18:56 41.98095 18.56173 40000 ft 496 kts 321°
2026-05-05 18:56 42.03234 18.50018 39998 ft 494 kts 313°
2026-05-05 18:57 42.07974 18.43309 40001 ft 494 kts 312°
2026-05-05 18:57 42.12642 18.36516 40001 ft 494 kts 312°
2026-05-05 18:58 42.17309 18.29702 39997 ft 494 kts 312°
2026-05-05 18:58 42.21981 18.22887 39998 ft 494 kts 312°
2026-05-05 18:59 42.26649 18.16073 40000 ft 494 kts 312°
2026-05-05 18:59 42.31316 18.09246 40000 ft 494 kts 312°
2026-05-05 19:00 42.35975 18.02414 40001 ft 494 kts 312°
2026-05-05 19:00 42.40633 17.95568 39998 ft 494 kts 311°
2026-05-05 19:01 42.45288 17.88710 40000 ft 494 kts 311°
2026-05-05 19:01 42.49906 17.81889 39998 ft 494 kts 311°
2026-05-05 19:02 42.54545 17.75022 40000 ft 494 kts 311°
2026-05-05 19:02 42.58945 17.68493 39999 ft 494 kts 311°
2026-05-05 19:03 42.63582 17.61596 40001 ft 494 kts 311°
2026-05-05 19:03 42.68217 17.54687 40000 ft 494 kts 311°
2026-05-05 19:04 42.72847 17.47767 39999 ft 494 kts 311°
2026-05-05 19:04 42.77479 17.40830 40001 ft 495 kts 311°
2026-05-05 19:05 42.82102 17.33888 40000 ft 495 kts 311°
2026-05-05 19:05 42.86725 17.26929 40001 ft 494 kts 311°
2026-05-05 19:06 42.91332 17.19978 40000 ft 494 kts 311°
2026-05-05 19:06 42.95940 17.13008 40001 ft 494 kts 311°
2026-05-05 19:07 43.00515 17.06073 39999 ft 495 kts 311°
2026-05-05 19:07 43.05121 16.99072 40001 ft 495 kts 311°
2026-05-05 19:08 43.09724 16.92061 40001 ft 494 kts 311°
2026-05-05 19:08 43.14316 16.85048 40000 ft 495 kts 311°
2026-05-05 19:09 43.18914 16.78009 40001 ft 495 kts 311°
2026-05-05 19:09 43.23499 16.70973 39995 ft 494 kts 311°
2026-05-05 19:10 43.28078 16.63929 40000 ft 495 kts 311°
2026-05-05 19:10 43.32668 16.56850 40002 ft 498 kts 311°
2026-05-05 19:11 43.37262 16.49747 40001 ft 497 kts 311°
2026-05-05 19:11 43.41845 16.42645 39998 ft 495 kts 310°
2026-05-05 19:12 43.46408 16.35557 40000 ft 494 kts 310°
2026-05-05 19:12 43.50942 16.28515 40000 ft 495 kts 311°
2026-05-05 19:13 43.55673 16.21622 39999 ft 496 kts 313°
2026-05-05 19:13 43.60493 16.14772 40000 ft 498 kts 313°
2026-05-05 19:14 43.65290 16.07882 39999 ft 498 kts 313°
2026-05-05 19:14 43.70059 16.00959 39999 ft 496 kts 313°
2026-05-05 19:15 43.74806 15.94036 40001 ft 496 kts 313°
2026-05-05 19:15 43.79545 15.87107 40001 ft 495 kts 313°
2026-05-05 19:16 43.84244 15.80223 40001 ft 495 kts 313°
2026-05-05 19:16 43.88966 15.73290 39998 ft 495 kts 312°
2026-05-05 19:17 43.93700 15.66322 40001 ft 496 kts 312°
2026-05-05 19:17 43.98428 15.59345 40000 ft 496 kts 312°
2026-05-05 19:18 44.03152 15.52356 40001 ft 495 kts 312°
2026-05-05 19:18 44.07866 15.45363 40000 ft 495 kts 312°
2026-05-05 19:19 44.12547 15.38403 40000 ft 495 kts 312°
2026-05-05 19:19 44.17250 15.31395 39999 ft 495 kts 312°
2026-05-05 19:20 44.21947 15.24376 40001 ft 495 kts 312°
2026-05-05 19:20 44.26639 15.17347 40000 ft 495 kts 312°
2026-05-05 19:21 44.31318 15.10321 40000 ft 494 kts 312°
2026-05-05 19:21 44.36000 15.03271 40000 ft 494 kts 312°
2026-05-05 19:22 44.40675 14.96215 40001 ft 494 kts 312°
2026-05-05 19:22 44.45347 14.89146 40000 ft 495 kts 312°
2026-05-05 19:23 44.50012 14.82069 40001 ft 494 kts 312°
2026-05-05 19:23 44.54674 14.74978 40000 ft 494 kts 311°
2026-05-05 19:24 44.59303 14.67919 40001 ft 494 kts 311°
2026-05-05 19:24 44.63201 14.61962 40001 ft 494 kts 311°
2026-05-05 19:25 44.67848 14.54844 39999 ft 494 kts 311°
2026-05-05 19:25 44.72492 14.47711 40001 ft 494 kts 311°
2026-05-05 19:26 44.77131 14.40568 40001 ft 495 kts 311°
2026-05-05 19:26 44.81778 14.33395 40001 ft 495 kts 311°
2026-05-05 19:27 44.86411 14.26224 39998 ft 495 kts 311°
2026-05-05 19:27 44.91011 14.19086 39999 ft 494 kts 311°
2026-05-05 19:28 44.95629 14.11902 40001 ft 494 kts 311°
2026-05-05 19:28 45.00245 14.04702 39999 ft 494 kts 311°
2026-05-05 19:29 45.04866 13.97477 40001 ft 496 kts 311°
2026-05-05 19:29 45.09483 13.90237 40001 ft 496 kts 311°
2026-05-05 19:30 45.14105 13.82972 40000 ft 497 kts 311°
2026-05-05 19:30 45.18726 13.75689 40000 ft 496 kts 311°
2026-05-05 19:31 45.23341 13.68396 40001 ft 496 kts 311°
2026-05-05 19:31 45.27943 13.61105 39998 ft 495 kts 311°
2026-05-05 19:32 45.32532 13.53815 40001 ft 495 kts 311°
2026-05-05 19:32 45.37112 13.46521 40001 ft 494 kts 311°
2026-05-05 19:33 45.41659 13.39259 40000 ft 494 kts 311°
2026-05-05 19:33 45.46235 13.31933 40001 ft 494 kts 311°
2026-05-05 19:34 45.51009 13.24913 40000 ft 495 kts 315°
2026-05-05 19:35 45.58494 13.14767 40000 ft 495 kts 316°
2026-05-05 19:35 45.63504 13.08014 39997 ft 495 kts 316°
2026-05-05 19:36 45.68506 13.01249 40001 ft 495 kts 315°
2026-05-05 19:36 45.73501 12.94469 39999 ft 495 kts 315°
2026-05-05 19:37 45.78493 12.87673 39998 ft 495 kts 315°
2026-05-05 19:37 45.83477 12.80871 40001 ft 495 kts 315°
2026-05-05 19:38 45.88462 12.74050 40001 ft 495 kts 315°
2026-05-05 19:38 45.93442 12.67217 40001 ft 495 kts 315°
2026-05-05 19:39 45.98420 12.60371 40000 ft 495 kts 315°
2026-05-05 19:39 46.03389 12.53517 40001 ft 495 kts 315°
2026-05-05 19:40 46.08338 12.46674 40000 ft 499 kts 315°
2026-05-05 19:40 46.13359 12.39713 40002 ft 502 kts 315°
2026-05-05 19:41 46.18382 12.32732 39999 ft 500 kts 315°
2026-05-05 19:41 46.23394 12.25746 39995 ft 500 kts 315°
2026-05-05 19:42 46.28410 12.18736 40001 ft 503 kts 315°
2026-05-05 19:42 46.33453 12.11669 40001 ft 506 kts 315°
2026-05-05 19:43 46.38513 12.04557 39999 ft 508 kts 315°
2026-05-05 19:43 46.43578 11.97419 39999 ft 506 kts 315°
2026-05-05 19:44 46.48632 11.90281 40000 ft 508 kts 315°
2026-05-05 19:44 46.53702 11.83101 39996 ft 510 kts 315°
2026-05-05 19:45 46.58777 11.75894 40001 ft 511 kts 315°
2026-05-05 19:45 46.63816 11.68611 40002 ft 510 kts 313°
2026-05-05 19:46 46.68619 11.61185 40001 ft 504 kts 312°
2026-05-05 19:46 46.73400 11.53700 40002 ft 506 kts 312°
2026-05-05 19:47 46.78241 11.46175 40001 ft 510 kts 312°
2026-05-05 19:47 46.83106 11.38633 40003 ft 509 kts 312°
2026-05-05 19:48 46.87951 11.31111 40000 ft 508 kts 312°
2026-05-05 19:48 46.92822 11.23613 39997 ft 509 kts 315°
2026-05-05 19:49 46.98484 11.17324 40002 ft 514 kts 326°
2026-05-05 19:49 47.04508 11.11672 39998 ft 515 kts 327°
2026-05-05 19:50 47.10434 11.05753 39999 ft 516 kts 321°
2026-05-05 19:50 47.15985 10.99303 40001 ft 515 kts 320°
2026-05-05 19:51 47.21539 10.92652 40000 ft 514 kts 320°
2026-05-05 19:51 47.27034 10.86028 39997 ft 507 kts 320°
2026-05-05 19:52 47.32485 10.79453 39999 ft 505 kts 320°
2026-05-05 19:52 47.37931 10.72873 40003 ft 507 kts 320°
2026-05-05 19:53 47.43525 10.66557 40002 ft 506 kts 324°
2026-05-05 19:53 47.49374 10.60781 40002 ft 506 kts 326°
2026-05-05 19:54 47.55238 10.54985 40000 ft 508 kts 325°
2026-05-05 19:54 47.61044 10.49070 40000 ft 506 kts 324°
2026-05-05 19:55 47.66664 10.42880 39718 ft 499 kts 317°
2026-05-05 19:55 47.69084 10.39205 38962 ft 497 kts 309°
2026-05-05 19:55 47.71093 10.35023 38183 ft 497 kts 300°
2026-05-05 19:55 47.72609 10.30503 37469 ft 496 kts 291°
2026-05-05 19:56 47.73647 10.25619 36738 ft 496 kts 282°
2026-05-05 19:56 47.74156 10.20551 36001 ft 497 kts 274°
2026-05-05 19:56 47.74214 10.15414 35237 ft 495 kts 269°
2026-05-05 19:56 47.74135 10.10313 34416 ft 494 kts 268°
2026-05-05 19:57 47.73999 10.05218 33523 ft 494 kts 267°
2026-05-05 19:57 47.73895 10.01778 32920 ft 494 kts 267°
2026-05-05 19:57 47.73687 9.95009 31664 ft 495 kts 267°
2026-05-05 19:57 47.73539 9.89891 30694 ft 495 kts 268°
2026-05-05 19:58 47.73397 9.84781 29718 ft 496 kts 268°
2026-05-05 19:58 47.73260 9.79691 29051 ft 490 kts 268°
2026-05-05 19:58 47.73126 9.74659 28375 ft 484 kts 268°
2026-05-05 19:58 47.72994 9.69693 27687 ft 479 kts 268°
2026-05-05 19:59 47.72861 9.64766 27000 ft 475 kts 268°
2026-05-05 19:59 47.72727 9.59900 26334 ft 470 kts 268°
2026-05-05 19:59 47.72591 9.55071 25657 ft 465 kts 268°
2026-05-05 19:59 47.72453 9.50308 24984 ft 460 kts 267°
2026-05-05 20:00 47.72047 9.45624 24338 ft 454 kts 257°
2026-05-05 20:00 47.70985 9.41246 23837 ft 448 kts 244°
2026-05-05 20:00 47.69331 9.37417 23474 ft 447 kts 233°
2026-05-05 20:00 47.67388 9.33817 23088 ft 446 kts 231°
2026-05-05 20:01 47.65416 9.30261 22712 ft 444 kts 231°
2026-05-05 20:01 47.63457 9.26728 22336 ft 442 kts 231°
2026-05-05 20:01 47.61525 9.23212 21939 ft 439 kts 232°
2026-05-05 20:01 47.59866 9.19446 21447 ft 436 kts 244°
2026-05-05 20:02 47.58838 9.15254 20954 ft 432 kts 257°
2026-05-05 20:02 47.58243 9.10916 20450 ft 429 kts 260°
2026-05-05 20:02 47.57719 9.06614 19942 ft 417 kts 260°
2026-05-05 20:02 47.57489 9.02509 19520 ft 387 kts 275°
2026-05-05 20:03 47.58188 8.98820 19136 ft 362 kts 297°
2026-05-05 20:03 47.59705 8.96009 18756 ft 343 kts 320°
2026-05-05 20:03 47.61772 8.94493 18367 ft 327 kts 346°
2026-05-05 20:03 47.63982 8.94529 17975 ft 314 kts 14°
2026-05-05 20:04 47.65853 8.96092 17607 ft 312 kts 44°
2026-05-05 20:04 47.67011 8.98777 17230 ft 310 kts 68°
2026-05-05 20:04 47.67542 9.01861 16887 ft 308 kts 83°
2026-05-05 20:04 47.67481 9.05025 16624 ft 306 kts 101°
2026-05-05 20:05 47.67021 9.08100 16382 ft 305 kts 104°
2026-05-05 20:05 47.66546 9.11158 16124 ft 304 kts 102°
2026-05-05 20:05 47.66123 9.14230 15869 ft 303 kts 101°
2026-05-05 20:05 47.65715 9.17294 15622 ft 302 kts 103°
2026-05-05 20:06 47.64959 9.20177 15365 ft 300 kts 123°
2026-05-05 20:06 47.63518 9.22335 15107 ft 294 kts 150°
2026-05-05 20:06 47.61623 9.23300 15009 ft 288 kts 176°
2026-05-05 20:06 47.59646 9.23054 15001 ft 285 kts 198°
2026-05-05 20:07 47.57910 9.21726 15001 ft 281 kts 221°
2026-05-05 20:07 47.56694 9.19503 14999 ft 279 kts 244°